[[{"header":{"parameterUnit":"m.s-1","parameterCategory":1,"la1":30.2991,"la2":30.254,"lo1":-89.0895,"lo2":-89.0444,"dy":0.0017,"dx":0.0017,"nx":28,"ny":28,"refTime":"2023-10-15T09:00:00:Z","depth":0,"parameterNumber":2,"parameterNumberName":"U-component_of_WINDS"},"data":[0,0,0,0,0,0,0,0,0,0,0,0,0,0,0,0,0,0,0,0,0,0,0,0,0,0,0,0,0,0,0,0,0,0,0,0,0,0,0,0,0,0,0,0,0,0,0,0,0,0,0,0,0,0,0,0,0,0,3.281,3.281,0,3.2835,3.2835,3.2835,3.2787,3.2786,3.2784,3.2783,3.2807,3.2809,3.2811,0,0,0,0,0,0,0,0,0,0,0,0,0,3.272,3.2722,3.281,3.281,3.281,3.2835,3.2835,3.2836,3.2788,3.2786,3.2784,3.2782,3.2806,3.2809,3.2811,0,0,0,0,0,0,0,0,0,0,0,0,0,3.2754,3.2723,3.281,3.279,3.2788,3.2835,3.2835,3.2836,3.2788,3.2786,3.2783,3.2781,3.2805,3.2808,3.2812,3.2879,0,0,3.2821,3.2823,0,0,0,0,0,0,0,0,3.2752,3.2757,3.2792,3.2791,3.2789,3.2806,3.2812,3.285,3.2789,3.2788,3.2783,3.278,3.2808,3.2811,3.2821,3.288,3.2881,3.2822,3.2823,3.2825,3.2826,0,0,0,0,0,0,0,3.275,3.2756,3.282,3.2793,3.2791,3.2779,3.2781,3.2819,3.2811,3.2788,3.2784,3.2788,3.2807,3.2818,3.2821,3.2881,3.2821,3.2824,3.2826,3.2827,3.2999,3.3001,0,0,0,0,0,0,3.275,3.2754,3.2819,3.282,3.2764,3.2783,3.2785,3.2803,3.2811,3.2809,3.279,3.2786,3.2814,3.2817,3.2822,3.2902,3.2825,3.2828,3.283,3.2996,3.2999,3.3002,0,0,0,0,0,0,3.2748,3.2756,3.2818,3.2786,3.2793,3.2787,3.2807,3.2805,3.2815,3.2812,3.2811,3.2803,3.2812,3.2817,3.2865,3.2902,3.2829,3.2832,3.2993,3.2997,3.3001,3.3062,0,0,0,0,0,0,3.2746,3.2756,3.2781,3.2787,3.2795,3.2861,3.2809,3.2807,3.2821,3.2816,3.2824,3.2823,3.2811,3.2861,3.2869,3.2905,3.2835,3.2989,3.2995,3.2999,3.3057,3.3068,3.3077,0,0,0,0,0,3.2743,3.2797,3.2783,3.2791,3.2827,3.2863,3.2868,3.2853,3.2824,3.285,3.2848,3.2823,3.2897,3.2866,3.2875,3.2912,3.2987,3.2993,3.2999,3.3052,3.3065,3.3077,0,0,0,0,0,0,3.2794,3.2797,3.2781,3.2839,3.2852,3.2855,3.2887,3.2867,3.2888,3.2882,3.2862,3.2864,3.2917,3.2919,3.2885,3.2979,3.2937,3.2945,3.2975,3.2987,3.2997,3.2995,3.2837,0,0,0,0,0,3.2812,3.2842,3.2843,3.2893,3.2901,3.2893,3.2908,3.2896,3.2908,3.2913,3.2914,3.2927,3.2953,3.297,3.2994,3.3057,3.3059,3.3088,3.3098,3.3106,3.3113,3.3148,3.3161,3.3021,3.3021,3.3021,0,0,3.2849,3.2854,3.2874,3.2904,3.2912,3.2943,3.2897,3.2932,3.2955,3.2918,3.2963,3.2966,3.2978,3.3035,3.3059,3.3038,3.3152,3.3114,3.312,3.3123,3.3155,3.3168,3.318,3.3025,3.3025,3.3024,0,0,3.2933,3.294,3.2983,3.2993,3.3007,3.3002,3.3013,3.302,3.302,3.3066,3.3039,3.3067,3.3112,3.3122,3.3134,3.3225,3.3202,3.3233,3.3286,3.332,3.3331,3.334,3.3373,3.3385,3.324,3.324,3.324,0,3.2977,3.3023,3.3008,3.3045,3.306,3.3029,3.3073,3.3083,3.3104,3.3114,3.3091,3.3149,3.3155,3.3214,3.3236,3.3246,3.3258,3.3231,3.3331,3.334,3.3349,3.338,3.3392,3.3244,3.3244,3.3243,3.3243,0,3.3077,3.311,3.3144,3.3166,3.3184,3.3224,3.3216,3.3236,3.3223,3.3221,3.3269,3.3276,3.3301,3.3315,3.3302,3.3373,3.3359,3.3334,3.3291,3.3366,3.3395,3.3407,3.3249,3.3248,3.3247,3.3246,0,0,3.3191,3.3206,3.3219,3.3229,3.3243,3.3268,3.3308,3.3334,3.3352,3.3368,3.3402,3.3442,3.3419,3.3432,3.3421,3.3451,3.3524,3.3422,3.3422,3.344,3.3603,3.3622,3.3636,3.3509,3.3512,3.3513,3.3602,0,3.3274,3.3344,3.3332,3.3399,3.343,3.3403,3.3438,3.345,3.345,3.3476,3.3475,3.3505,3.3472,3.348,3.3509,3.3509,3.3556,3.3502,3.354,3.3542,3.3537,3.3651,3.367,3.3753,3.3613,3.3615,3.3616,0,3.338,3.3402,3.3472,3.3483,3.3496,3.3527,3.3551,3.3576,3.3591,3.3589,3.3605,3.3588,3.3629,3.3587,3.3643,3.3607,3.3622,3.3625,3.3628,3.363,3.3583,3.3656,3.3779,3.3792,3.3634,3.3633,3.3631,0,3.3457,3.3503,3.3552,3.3561,3.3575,3.3599,3.3605,3.3618,3.3635,3.3656,3.3667,3.3692,3.3706,3.3726,3.3717,3.3688,3.3775,3.3732,3.3774,3.3775,3.3793,3.3792,3.392,3.3804,3.3804,3.3804,3.3803,0,3.355,3.3595,3.3586,3.3616,3.3665,3.3653,3.3702,3.3705,3.3717,3.3747,3.3725,3.3754,3.3741,3.3769,3.3763,3.3811,3.3817,3.3816,3.3814,3.3818,3.3818,3.3827,3.3821,3.3807,3.3806,3.3805,3.3805,0,3.3643,3.364,3.3691,3.3701,3.3705,3.3741,3.3749,3.3777,3.3776,3.3815,3.3823,3.3822,3.3854,3.3848,3.3883,3.3879,3.3939,3.3929,3.3934,3.3932,3.3974,3.397,3.4112,3.413,3.4003,3.4004,3.4005,0,3.3703,3.3737,3.3751,3.377,3.3779,3.381,3.3828,3.3818,3.3837,3.3858,3.3884,3.3915,3.3938,3.3991,3.3993,3.4021,3.4012,3.406,3.4015,3.4019,3.4012,3.401,3.4014,3.4068,3.4069,3.4071,3.4072,0,3.381,3.3807,3.3833,3.3861,3.3883,3.3903,3.3922,3.3939,3.393,3.3953,3.3987,3.4005,3.4043,3.4073,3.41,3.4107,3.4088,3.4086,3.4097,3.4101,3.4102,3.4102,3.3958,3.4082,3.4081,3.408,3.408,3.4079,3.3887,3.3917,3.3932,3.3963,3.3977,3.3995,3.4022,3.4026,3.4054,3.4083,3.4076,3.4114,3.4129,3.4163,3.4173,3.4203,3.4185,3.4201,3.4205,3.4209,3.4214,3.4099,3.4208,3.4207,3.4207,3.4207,3.4207,0,3.3993,3.4002,3.4031,3.4058,3.4083,3.4065,3.4085,3.4107,3.4141,3.4158,3.4182,3.4221,3.4252,3.4258,3.4287,3.431,3.4302,3.4318,3.4315,3.4318,3.4229,3.4216,3.4323,3.4323,3.4323,3.4323,3.4323,3.4323,3.4051,3.4099,3.4099,3.4155,3.4163,3.4201,3.4214,3.4232,3.4245,3.429,3.4316,3.4319,3.4332,3.4362,3.439,3.439,3.4402,3.4421,3.4419,3.4335,3.4324,3.4312,3.4301,3.4424,3.4424,3.4505,3.4506,3.4507]},{"header":{"parameterUnit":"m.s-1","parameterCategory":1,"la1":30.2991,"la2":30.254,"lo1":-89.0895,"lo2":-89.0444,"dy":0.0017,"dx":0.0017,"nx":28,"ny":28,"refTime":"2023-10-15T09:00:00:Z","depth":0,"parameterNumber":3,"parameterNumberName":"V-component_of_WINDS"},"data":[0,0,0,0,0,0,0,0,0,0,0,0,0,0,0,0,0,0,0,0,0,0,0,0,0,0,0,0,0,0,0,0,0,0,0,0,0,0,0,0,0,0,0,0,0,0,0,0,0,0,0,0,0,0,0,0,0,0,-8.1883,-8.1884,0,-8.2015,-8.2017,-8.2018,-8.1945,-8.1941,-8.1937,-8.1934,-8.2063,-8.207,-8.2076,0,0,0,0,0,0,0,0,0,0,0,0,0,-8.156,-8.1566,-8.1883,-8.1884,-8.1886,-8.2015,-8.2017,-8.2019,-8.1945,-8.1941,-8.1936,-8.1932,-8.2061,-8.2069,-8.2077,0,0,0,0,0,0,0,0,0,0,0,0,0,-8.1697,-8.1568,-8.1882,-8.1865,-8.1865,-8.2015,-8.2017,-8.2019,-8.1946,-8.1941,-8.1935,-8.193,-8.2058,-8.2068,-8.2078,-8.2251,0,0,-8.2109,-8.2114,0,0,0,0,0,0,0,0,-8.1689,-8.1709,-8.1866,-8.1866,-8.1867,-8.1958,-8.195,-8.2097,-8.1948,-8.1915,-8.1934,-8.1927,-8.2032,-8.2044,-8.2081,-8.2257,-8.2262,-8.211,-8.2116,-8.2121,-8.2124,0,0,0,0,0,0,0,-8.168,-8.1703,-8.1935,-8.1868,-8.1869,-8.1849,-8.1862,-8.1978,-8.2002,-8.1917,-8.1912,-8.193,-8.2031,-8.2071,-8.2083,-8.2264,-8.211,-8.2119,-8.2125,-8.2129,-8.2589,-8.2595,0,0,0,0,0,0,-8.1672,-8.1695,-8.1931,-8.1939,-8.1763,-8.1859,-8.1874,-8.1934,-8.2001,-8.2006,-8.1934,-8.1926,-8.2056,-8.2071,-8.2087,-8.2295,-8.2121,-8.213,-8.2136,-8.2583,-8.259,-8.2597,0,0,0,0,0,0,-8.1666,-8.1694,-8.1925,-8.1816,-8.1844,-8.187,-8.1938,-8.194,-8.1979,-8.2014,-8.2017,-8.1971,-8.2052,-8.2073,-8.2211,-8.2298,-8.2135,-8.2144,-8.2576,-8.2585,-8.2593,-8.271,0,0,0,0,0,0,-8.1657,-8.1692,-8.1759,-8.1818,-8.185,-8.2049,-8.1944,-8.1946,-8.1998,-8.1988,-8.2049,-8.2054,-8.205,-8.2196,-8.2221,-8.2309,-8.2152,-8.2568,-8.258,-8.2591,-8.2698,-8.2722,-8.2742,0,0,0,0,0,-8.1645,-8.1785,-8.1763,-8.1792,-8.1935,-8.2054,-8.2072,-8.2067,-8.2005,-8.2072,-8.2094,-8.2052,-8.2285,-8.2211,-8.2239,-8.2331,-8.2562,-8.2576,-8.259,-8.2689,-8.2717,-8.2741,0,0,0,0,0,0,-8.1732,-8.1792,-8.1768,-8.1932,-8.1989,-8.2042,-8.2126,-8.2097,-8.2171,-8.2159,-8.2147,-8.2161,-8.2305,-8.2331,-8.2249,-8.2502,-8.2414,-8.2433,-8.2479,-8.2507,-8.2528,-8.2519,-8.2161,0,0,0,0,0,-8.1771,-8.1865,-8.1911,-8.2051,-8.2081,-8.2099,-8.215,-8.2142,-8.22,-8.2223,-8.2255,-8.2311,-8.2396,-8.2453,-8.2533,-8.2702,-8.2714,-8.2779,-8.28,-8.2818,-8.2835,-8.2927,-8.2956,-8.2641,-8.2641,-8.2641,0,0,-8.1851,-8.1895,-8.1955,-8.2069,-8.2113,-8.2209,-8.2119,-8.2224,-8.2295,-8.2238,-8.2371,-8.2397,-8.2458,-8.2613,-8.2682,-8.2639,-8.2925,-8.2835,-8.2849,-8.2857,-8.2944,-8.2974,-8.3,-8.2651,-8.2649,-8.2648,0,0,-8.2046,-8.2089,-8.2211,-8.2257,-8.2325,-8.2336,-8.2365,-8.2423,-8.2439,-8.2573,-8.2533,-8.2615,-8.2763,-8.2809,-8.2852,-8.3067,-8.303,-8.3093,-8.3206,-8.3296,-8.3321,-8.3342,-8.3419,-8.3447,-8.311,-8.311,-8.311,0,-8.2136,-8.2281,-8.2276,-8.2386,-8.2437,-8.2392,-8.2515,-8.2559,-8.2648,-8.2684,-8.2635,-8.2821,-8.2859,-8.3024,-8.3077,-8.3113,-8.3145,-8.3086,-8.3318,-8.334,-8.336,-8.3433,-8.3462,-8.3117,-8.3117,-8.3116,-8.3115,0,-8.2389,-8.2491,-8.258,-8.2672,-8.2733,-8.2848,-8.2859,-8.2921,-8.2908,-8.2924,-8.3061,-8.3106,-8.3195,-8.3234,-8.322,-8.3397,-8.3369,-8.3319,-8.323,-8.3398,-8.3466,-8.3494,-8.3128,-8.3125,-8.3123,-8.3121,0,0,-8.2641,-8.273,-8.2763,-8.2805,-8.2877,-8.2954,-8.3067,-8.3158,-8.3212,-8.3275,-8.3369,-8.3496,-8.3452,-8.35,-8.3491,-8.357,-8.3738,-8.3511,-8.3512,-8.3552,-8.3936,-8.3973,-8.4006,-8.3715,-8.372,-8.3724,-8.3931,0,-8.2841,-8.3042,-8.3041,-8.3225,-8.3319,-8.3279,-8.3377,-8.3431,-8.345,-8.353,-8.3549,-8.364,-8.3574,-8.3603,-8.3679,-8.3702,-8.3815,-8.3687,-8.38,-8.3805,-8.3787,-8.4042,-8.4081,-8.4274,-8.3958,-8.3963,-8.3966,0,-8.3101,-8.3177,-8.3372,-8.3432,-8.3471,-8.356,-8.3644,-8.3722,-8.3782,-8.379,-8.3846,-8.3825,-8.3938,-8.3847,-8.4003,-8.3916,-8.3962,-8.398,-8.3987,-8.3998,-8.3895,-8.4059,-8.4336,-8.4365,-8.4008,-8.4004,-8.4001,0,-8.3267,-8.3417,-8.3553,-8.359,-8.3663,-8.3727,-8.376,-8.3815,-8.387,-8.3942,-8.3977,-8.4061,-8.4106,-8.4171,-8.4173,-8.4106,-8.433,-8.4239,-8.4339,-8.4339,-8.4387,-8.4384,-8.4676,-8.4418,-8.4417,-8.4417,-8.4416,0,-8.349,-8.3611,-8.3629,-8.3713,-8.3847,-8.3844,-8.3976,-8.4003,-8.4053,-8.414,-8.4109,-8.4191,-8.4189,-8.4272,-8.4274,-8.4403,-8.4423,-8.4432,-8.4431,-8.4435,-8.4434,-8.4465,-8.4451,-8.4424,-8.4423,-8.4421,-8.442,0,-8.3697,-8.3714,-8.386,-8.3919,-8.3937,-8.4033,-8.4082,-8.4161,-8.4177,-8.4288,-8.4314,-8.4339,-8.4435,-8.4444,-8.4554,-8.4556,-8.4712,-8.4696,-8.4693,-8.469,-8.479,-8.478,-8.5111,-8.5155,-8.4868,-8.4871,-8.4873,0,-8.3839,-8.3931,-8.4001,-8.4059,-8.4097,-8.4189,-8.4246,-8.4247,-8.4307,-8.4384,-8.4453,-8.4547,-8.4622,-8.4778,-8.4804,-8.4889,-8.4875,-8.4985,-8.4887,-8.4889,-8.4877,-8.4872,-8.4881,-8.5004,-8.5007,-8.501,-8.5012,0,-8.4089,-8.4093,-8.4177,-8.4266,-8.4335,-8.4404,-8.4468,-8.4516,-8.4524,-8.4593,-8.4693,-8.4752,-8.4867,-8.496,-8.5044,-8.5075,-8.5045,-8.5043,-8.5071,-8.5075,-8.507,-8.5075,-8.4745,-8.5035,-8.5033,-8.5031,-8.503,-8.5029,-8.4267,-8.4348,-8.4411,-8.4506,-8.4555,-8.4616,-8.4694,-8.4722,-8.4806,-8.4901,-8.4896,-8.5006,-8.5064,-8.5174,-8.5212,-8.5297,-8.526,-8.53,-8.531,-8.532,-8.533,-8.5057,-8.5312,-8.5311,-8.5311,-8.531,-8.531,0,-8.4516,-8.4555,-8.4643,-8.4735,-8.481,-8.4779,-8.4848,-8.4912,-8.5011,-8.5069,-8.5144,-8.5259,-8.535,-8.5385,-8.5473,-8.5534,-8.5523,-8.5558,-8.5553,-8.5561,-8.5358,-8.5326,-8.5566,-8.5565,-8.5565,-8.5565,-8.5565,-8.5565,-8.4654,-8.479,-8.4802,-8.4961,-8.4998,-8.5109,-8.5151,-8.5207,-8.5254,-8.5385,-8.5461,-8.5484,-8.5533,-8.5625,-8.5706,-8.5714,-8.5748,-8.5789,-8.579,-8.5601,-8.5575,-8.555,-8.552,-8.5796,-8.5796,-8.5986,-8.5987,-8.5989]}]]